This demonstration page uses our WeatherBlox Daily Observations layout. Learn more.

Left ArrowRight Arrow

34.74481, -87.66753

Hourly Observations for December 7, 2019

Temp ( °F °C ) Dew Point ( °F °C ) Humidity (%) Winds ( mph kmh ) Pressure ( in mb ) Visibility ( mi km ) Precip ( " mm )
12:53 am 00:53 Cloudy 52 11.1 46 7.8 80 80 NNE 7 11 30.23 1024 10 16 0.00 0.00
1:53 am 01:53 Clear 50 10 45 7.2 83 83 NNW 3 6 30.24 1024 10 16 0.00 0.00
2:53 am 02:53 Cloudy 50 10 45 7.2 83 83 NNW 5 7 30.24 1024 10 16 0.00 0.00
3:53 am 03:53 Cloudy 49 9.4 41 5 74 74 N 5 7 30.25 1024 10 16 0.00 0.00
4:53 am 04:53 Cloudy 48 8.9 42 5.6 80 80 N 5 7 30.25 1025 10 16 0.00 0.00
5:53 am 05:53 Cloudy 48 8.9 42 5.6 80 80 NNW 5 7 30.27 1025 10 16 0.00 0.00
6:53 am 06:53 Sunny 45 7.2 41 5 86 86 NNW 3 6 30.27 1025 7 11 0.00 0.00
7:53 am 07:53 Sunny 49 9.4 45 7.2 86 86 Calm 30.27 1025 7 11 0.00 0.00
8:53 am 08:53 Sunny 52 11.1 45 7.2 77 77 N 5 7 30.28 1026 9 14 0.00 0.00
9:53 am 09:53 Sunny 54 12.2 44 6.7 69 69 NNE 5 7 30.29 1026 10 16 0.00 0.00
10:53 am 10:53 Sunny 58 14.4 45 7.2 62 62 NE 5 7 30.28 1026 10 16 0.00 0.00
11:53 am 11:53 Sunny 60 15.6 45 7.2 58 58 NE 7 11 30.26 1025 10 16 0.00 0.00
12:53 pm 12:53 Sunny 62 16.7 45 7.2 54 54 ENE 5 7 30.25 1024 10 16 0.00 0.00
1:53 pm 13:53 Sunny 64 17.8 45 7.2 50 50 E 6 9 30.23 1024 10 16 0.00 0.00
2:53 pm 14:53 Sunny 64 17.8 44 6.7 48 48 Calm 30.22 1023 10 16 0.00 0.00
3:53 pm 15:53 Sunny 63 17.2 44 6.7 50 50 VRB 3 6 30.22 1024 10 16 0.00 0.00
4:53 pm 16:53 Clear 59 15 44 6.7 58 58 NE 5 7 30.22 1024 10 16 0.00 0.00
5:53 pm 17:53 Clear 55 12.8 44 6.7 67 67 NNE 3 6 30.23 1024 10 16 0.00 0.00
6:53 pm 18:53 Clear 54 12.2 45 7.2 72 72 NE 7 11 30.24 1024 10 16 0.00 0.00
7:53 pm 19:53 Clear 52 11.1 44 6.7 75 75 NE 7 11 30.24 1024 10 16 0.00 0.00
8:53 pm 20:53 Clear 49 9.4 43 6.1 80 80 ENE 5 7 30.24 1024 10 16 0.00 0.00
9:53 pm 21:53 Clear 49 9.4 43 6.1 80 80 Calm 30.23 1024 10 16 0.00 0.00
10:53 pm 22:53 Clear 45 7.2 42 5.6 90 90 Calm 30.23 1024 10 16 0.00 0.00
11:53 pm 23:53 Partly Cloudy 43 6.1 41 5 93 93 Calm 30.22 1023 9 14 0.00 0.00

Powered by AerisWeather